Chilapa Escoba Tercera Seccion, Mexico

8:45 AM CST on March 20, 2019 (GMT -0600)
C P A Carlos Rovirosa International | | Change Station

Elev 43 ft 18.00 °N, 92.82 °W | Updated 1 hour ago

Light Drizzle
Light Drizzle Mist
70 °F
Feels Like 70 °F
N
0
Wind Variable Wind from North

Today
High -- | Low -- °F
--% Chance of Precip.
Yesterday
High -- | Low -- °F
Precip. -- in
Pressure 30.08 in
Visibility 3.0 miles
Clouds Mostly Cloudy 1000 ft
Overcast 6000 ft
Dew Point 68 °F
Humidity 94%
Rainfall 0.00 in
Snow Depth Not available.
6:15 AM 6:21 PM
Full, 100% visible
METAR MMVA 201343Z 00000KT 3SM -DZ BR BKN010 OVC060 21/20 A3008 RMK 8/52/
Pressure 30.08 in
Visibility 3.0 miles
Clouds Mostly Cloudy 1000 ft
Overcast 6000 ft
Dew Point 68 °F
Humidity 94%
Rainfall 0.00 in
Snow Depth Not available.
6:15 AM 6:21 PM
Full, 100% visible
METAR MMVA 201343Z 00000KT 3SM -DZ BR BKN010 OVC060 21/20 A3008 RMK 8/52/

Get Severe Weather Alerts

Thanks for signing up!

Be on the lookout for a verification email in your inbox.

You'll start receiving the daily forecast at 6 AM.

×

10-Day Weather Forecast

No radar image for this location.
×

Almanac

Astronomy

Mar. 20, 2019 Rise Set
Actual Time
Civil Twilight
Nautical Twilight
Astronomical Twilight
Moon
Length of Visible Light
Length of Day
Tomorrow will be .
, % of the Moon is Illuminated

Today's Extremes

Country Highs Country Lows

Community

WunderPhotos

Category 6

Welcome to Category 6. This is the collective home for Weather Underground's featured writeups by Dr. Jeff Masters (right), Bob Henson (left), Chris Burt, and other regular contributors.

Nearby

Air Quality

  Air Quality AQ Index Pollutant
Not available.

Snow Depth

Station Depth Elevation

Earthquake Activity

City Distance Mag. Time & Date
Minimum magnitude displayed is 2.5.

Coastal Water Temperatures

Place Temperature

Stations

Nearby Weather Stations

Station Location Temp. Windchill Dew Point Humidity Wind Precip. Elev Updated Type